Regional Weather Roundup
Issued by NWS

Home | Current Version | Previous Version | Graphics & Text | Print | Product List | Glossary On
Versions: 1 2 3 4 5 6 7 8 9 10 11 12 13 14 15 16 17 18 19 20 21 22 23 24 25 26 27 28 29 30 31 32 33 34 35 36 37 38 39 40 41 42 43 44 45 46 47 48 49 50
000
ASUS43 KOAX 222310
RWRNE

WEATHER ROUNDUP FOR NEBRASKA
NATIONAL WEATHER SERVICE OMAHA NE
600 PM CDT SUN OCT 22 2017

NOTES: SATELLITE DATA IS BEING USED TO AUGMENT CLOUD COVER ABOVE
       12000 FEET.
       "FAIR" INDICATES FEW OR NO CLOUDS BELOW 12,000 FEET WITH NO
       SIGNIFICANT WEATHER AND/OR OBSTRUCTIONS TO VISIBILITY.


NEZ001>004-019>022-054>056-230000-
NEBRASKA PANHANDLE

CITY           SKY/WX    TMP DP  RH WIND       PRES   REMARKS
SCOTTSBLUFF    CLOUDY    66  29  24 W20G31    29.99S
ALLIANCE       CLOUDY    63  30  28 W15       29.98R
CHADRON        CLOUDY    71  26  18 W21G31    29.90S
GORDON         FAIR      65  30  27 W10       29.90F
KIMBALL        CLOUDY    65  26  22 NW17G24   30.05R
SIDNEY         CLOUDY    64  29  26 NW12      30.03R
$$

NEZ057>060-069>072-079>082-230000-
SOUTHWEST NEBRASKA

CITY           SKY/WX    TMP DP  RH WIND       PRES   REMARKS
NORTH PLATTE   CLOUDY    65  36  34 SW7       29.95F
IMPERIAL       PTCLDY    70  26  19 W9        30.00F
LEXINGTON      CLEAR     67  29  24 SW8       29.97F
MCCOOK         CLEAR     69  24  18 SW8       30.00F
OGALLALA       CLOUDY    69  29  22 W6        29.97S
$$

NEZ005>010-023>029-035>040-094-230000-
NORTH CENTRAL NEBRASKA

CITY           SKY/WX    TMP DP  RH WIND       PRES   REMARKS
VALENTINE      CLEAR     69  30  23 W8        29.89S
AINSWORTH      PTCLDY    66  36  33 SW3       29.90S
BROKEN BOW     CLEAR     64  35  34 SW8       29.94F
O`NEILL        CLEAR     62  35  35 SW6       29.91F
ORD            CLEAR     65  33  30 S8        29.93F
THEDFORD       CLOUDY    68  33  27 W7        29.93S
$$

NEZ041-046>049-061>064-073>077-083>087-230000-
SOUTH CENTRAL NEBRASKA

CITY           SKY/WX    TMP DP  RH WIND       PRES   REMARKS
GRAND ISLAND   CLEAR     66  30  26 SW9       30.00F
AURORA         CLEAR     66  28  23 SW5       30.00S
HASTINGS       CLEAR     67  25  20 SW6       30.01F
HEBRON         CLEAR     67  27  21 SW5       30.03F
HOLDREGE       CLOUDY    65  29  25 SW8       30.00F
KEARNEY        CLEAR     65  27  23 SW10      29.99F
YORK           CLEAR     66  27  22 W9        30.00S
$$

NEZ011>018-030>034-042>045-230000-
NORTHEAST NEBRASKA

CITY           SKY/WX    TMP DP  RH WIND       PRES   REMARKS
NORFOLK        CLEAR     65  27  23 SW8       29.95F
ALBION         CLEAR     65  32  28 SW8       29.96S
BLAIR          CLEAR     67  32  27 S8        30.00F
COLUMBUS       CLEAR     66  29  24 S7        29.98F
FREMONT        CLEAR     67  26  21 S7        29.99F
TEKAMAH        CLEAR     67  24  19 SW7       29.97F
WAYNE          CLEAR     64  22  20 SW9       29.95S
$$

NEZ050>053-065>068-078-088>093-230000-
SOUTHEAST NEBRASKA

CITY           SKY/WX    TMP DP  RH WIND       PRES   REMARKS
LINCOLN        CLEAR     68  27  21 SW7       30.02S
OMAHA EPPLEY   PTCLDY    68  29  23 S9        30.01S
BEATRICE       CLEAR     67  31  26 SW8       30.03S
FALLS CITY     CLEAR     66  30  26 SW6       30.05F
NEBRASKA CITY  CLEAR     64  34  32 S9        30.04S
PLATTSMOUTH    CLEAR     65  34  31 S5        30.03S
$$

NEZ044-045-051>053-067-230000-
OMAHA AREA

CITY           SKY/WX    TMP DP  RH WIND       PRES   REMARKS
OMAHA EPPLEY   PTCLDY    68  29  23 S9        30.01S
BLAIR          CLEAR     67  32  27 S8        30.00F
FREMONT        CLEAR     67  26  21 S7        29.99F
MILLARD        CLEAR     69  31  24 S3        30.01S
OFFUTT AFB     CLEAR     66  29  25 S6        30.01S
PLATTSMOUTH    CLEAR     65  34  31 S5        30.03S
WAHOO          FAIR      68  22  17 SW8       29.99F
$$



USA.gov is the U.S. government's official web portal to all federal, state and local government web resources and services.